Terminal Aerodrome Forecast
Issued by NWS

Home | Current Version | Previous Version | Graphics & Text | Print | Product List | Glossary Off
Versions: 1 2 3 4 5 6 7 8 9 10 11 12 13 14 15 16 17 18 19 20 21 22 23 24 25 26 27 28

000
FTUS43 KDDC 300922 AAA
TAFGCK
TAF AMD
KGCK 300922Z 3009/0106 01023G35KT 3/4SM BR BKN007 OVC011
      TEMPO 3011/3015 1/4SM +SN FG OVC003
     FM301800 34031G44KT 2SM -SN OVC008
     FM302300 32027G36KT P6SM OVC025
     FM010000 32026G34KT P6SM BKN035=

USA.gov is the U.S. government's official web portal to all federal, state and local government web resources and services.